Regional Weather Roundup
Issued by NWS State College, PA

Home | Current Version | Previous Version | Text Only | Print | Product List | Glossary On
Versions: 1 2 3 4 5 6 7 8 9 10 11 12 13 14 15 16 17 18 19 20 21 22 23 24 25 26 27 28 29 30 31 32 33 34 35 36 37 38 39 40 41 42 43 44 45 46 47 48 49 50
000
ASUS41 KCTP 011603
RWRCTP

REGIONAL WEATHER ROUNDUP
NATIONAL WEATHER SERVICE STATE COLLEGE PA
1100 AM EST WED MAR 01 2017

Note: "fair" indicates few or no clouds below 12,000 feet with no
significant weather and/or obstructions to visibility.

* = STATION THAT DOES NOT REPORT PRECIPITATION /E.G. RAIN...SNOW...ETC/
    THUNDER OR FOG.

PAZ002>004-007>009-013>016-020>023-029>032-011700-
WESTERN PENNSYLVANIA

CITY           SKY/WX    TMP DP  RH WIND       PRES   REMARKS
ERIE           LGT RAIN  58  48  69 S20G28    29.42S
MEADVILLE      LGT RAIN  52  48  86 S12G21    29.49R
FRANKLIN*      CLOUDY    52  46  82 SW14      29.54S
NEW CASTLE     LGT RAIN  52  51  97 VRB5      29.59R
BEAVER COUNTY  NOT AVBL
BUTLER*        CLOUDY    52  48  87 SW6       29.61R
PITTSBURGH INT RAIN      53  53 100 SW8       29.62R FOG
PITTSBURGH     LGT RAIN  53  50  89 W6        29.62R
INDIANA*       CLOUDY    54  54 100 W5        29.61R FOG
LATROBE        LGT RAIN  55  55 100 W12       29.60R
WASHINGTON CO* CLOUDY    52  50  93 SW5       29.67R
$$

PAZ004>006-010>012-017>019-024>028-033>037-041-042-045-046-049>053-011700-
CENTRAL PENNSYLVANIA

CITY           SKY/WX    TMP DP  RH WIND       PRES   REMARKS
BRADFORD       LGT RAIN  53  50  89 SW7       29.50S
DUBOIS         LGT RAIN  53  49  86 S5        29.54F
CLEARFIELD       N/A    N/A N/A N/A MISG      29.55F
JOHNSTOWN      LGT RAIN  56  55  97 SW12      29.58R FOG
ALTOONA        CLOUDY    63  55  75 SW14G23   29.57F
STATE COLLEGE  PTSUNNY   57  54  88 SW8       29.57F
WILLIAMSPORT   CLOUDY    60  53  77 S9G22     29.55F
SELINSGROVE    PTSUNNY   58  56  93 SW9       29.58F
FT INDIANTOWN  CLOUDY    55  55 100 CALM      29.63F FOG
CAPITAL CITY   CLOUDY    60  56  86 S10G17    29.61F FOG
HARRISBURG     CLOUDY    55  55 100 S10       29.62F
YORK           CLOUDY    58  58 100 E5        29.65F FOG
$$

PAZ038>040-043-044-047-048-054-055-060>062-067>071-011700-
EASTERN PENNSYLVANIA

CITY           SKY/WX    TMP DP  RH WIND       PRES   REMARKS
SCRANTON       LGT RAIN  61  54  77 S14G32    29.53F
MOUNT POCONO   LGT RAIN  53  53 100 SW14G24   29.63F
ALLENTOWN      RAIN      58  55  90 S7        29.67F VSB 1
QUAKERTOWN*    CLOUDY    57  57 100 SW5       29.71F VSB 1
READING        LGT RAIN  57  57 100 SE6       29.66F VSB 1
LANCASTER      FOG       57  57 100 SE6       29.67F VSB 1
COATESVILLE    CLOUDY    59  59 100 VRB6G12   29.71F
POTTSTOWN      LGT RAIN  57  57 100 VRB3      29.71F FOG
BLUE BELL      CLOUDY    59  57  94 SW6       29.69R
DOYLESTOWN     LGT RAIN  59  58  96 SW5       29.70F
WILLOW GROVE   NOT AVBL
NORTH PHILA    CLOUDY    63  59  87 SW8       29.70F
PHILADELPHIA   CLOUDY    64  59  83 SW13      29.69F
$$




USA.gov is the U.S. government's official web portal to all federal, state and local government web resources and services.